Regional Weather Roundup
Issued by NWS Sioux Falls, SD

Home | Current Version | Previous Version | Graphics & Text | Print | Product List | Glossary Off
Versions: 1 2 3 4 5 6 7 8 9 10 11 12 13 14 15 16 17 18 19 20 21 22 23 24 25 26 27 28 29 30 31 32 33 34 35 36 37 38 39 40 41 42 43 44 45 46 47 48 49 50

000
ASUS43 KFSD 200310
RWRFSD

WEATHER ROUNDUP FOR SE SOUTH DAKOTA/SW MINNESOTA/NW IOWA
NATIONAL WEATHER SERVICE SIOUX FALLS SD
1000 PM CDT SAT APR 19 2014

NOTE: "FAIR" INDICATES FEW OR NO CLOUDS BELOW 12,000 FEET WITH NO
SIGNIFICANT WEATHER AND OR OBSTRUCTIONS TO VISIBILITY.


SDZ038>040-050-052>070-200400-
SOUTHEAST SOUTH DAKOTA

CITY           SKY/WX    TMP DP  RH WIND       PRES   REMARKS
CHAMBERLAIN      N/A     54  24  31 E6        30.03R
HURON          MOCLDY    55  30  38 SW6       30.01R
MADISON        FAIR      52  28  40 NW5       30.02R
MITCHELL       MOCLDY    54  27  35 W3        30.02R
SIOUX FALLS    CLOUDY    59  38  45 N5        30.02R
WINNER         FAIR      52  20  28 SE8       30.02R
YANKTON        MOCLDY    57  34  41 N8        30.02R
$$

MNZ071-072-080-081-089-090-097-098-200400-
SOUTHWEST MINNESOTA

CITY           SKY/WX    TMP DP  RH WIND       PRES   REMARKS
FAIRMONT       CLOUDY    57  48  72 N7        30.03R
JACKSON        CLOUDY    57  45  62 N6        30.02S
LUVERNE        CLOUDY    61  37  41 N5        30.02R
MARSHALL       MOCLDY    52  36  54 SW7       30.01R
MONTEVIDEO     MOCLDY    54  41  62 CALM      30.01R
PIPESTONE      MOCLDY    55  32  41 CALM      30.02S
REDWOOD FALLS  CLOUDY    56  45  66 CALM      30.01R
TRACY          CLOUDY    56  43  62 CALM      30.02R
WINDOM         CLOUDY    55  45  67 CALM      30.02S
WORTHINGTON    CLOUDY    57  41  54 NE6       30.04R
$$

IAZ001>003-012>014-020>022-031-032-NEZ013-014-SDZ071-200400-
NORTHWEST IOWA

CITY           SKY/WX    TMP DP  RH WIND       PRES   REMARKS
CHEROKEE       CLOUDY    62  44  51 CALM      29.99S
DENISON        CLOUDY    70  43  37 S16       29.99R
ESTHERVILLE    CLOUDY    59  50  72 N8        30.01R
LE MARS        CLOUDY    64  45  48 NE7       29.99S
ORANGE CITY    CLOUDY    64  41  42 NE5       30.00R
SHELDON        CLOUDY    61  46  59 NE7       29.99R
SIOUX CITY     CLOUDY    64  49  57 E5        29.98R
SPENCER        CLOUDY    62  48  60 NE9       30.01R
STORM LAKE     CLOUDY    66  45  45 S9        30.01S
$$

ABBREVIATIONS USED IN REMARKS
   TC - TEMPERATURE IN CELSIUS
  WCI - WIND CHILL INDEX
   HX - HEAT INDEX
  VSB - VISIBILITY




USA.gov is the U.S. government's official web portal to all federal, state and local government web resources and services.